Theta_e
302 303 302 302 302 293 292 299 304 308 307 306 303 301 300 299 299 300 300 299 299 297 294 286 285 283 283 284 284 284 284 284 283 283 282 282 282 282 282 282 283 283 283 283
296 301 302 300 299 298 296 296 297 297 297 298 298 299 299 300 300 300 299 299 298 296 289 286 283 283 283 283 283 283 284 284 282 281 281 281 282 282 283 283 283 283 283 283
306 299 301 307 303 298 298 296 295 299 304 301 301 301 301 300 299 298 298 298 296 293 289 283 282 282 283 283 283 283 283 282 281 281 281 281 282 282 283 283 283 284 283 283
301 301 312 312 301 300 299 298 295 296 297 298 299 299 299 299 298 298 299 296 292 289 286 283 282 282 283 283 283 283 283 281 281 281 281 281 282 282 283 284 285 285 284 283
302 304 307 309 298 301 300 303 302 298 297 300 301 300 302 303 300 298 296 294 289 286 284 283 282 282 282 283 283 282 282 282 281 281 281 281 282 282 283 284 285 286 285 284
298 301 309 311 297 293 292 307 301 300 302 301 301 303 303 300 297 296 295 291 286 287 284 283 282 282 282 282 282 283 282 282 282 280 280 281 282 283 284 285 286 286 285 284
295 298 301 304 295 291 305 309 303 302 301 301 301 300 299 297 295 294 292 287 287 284 285 283 282 281 282 282 283 282 282 282 282 280 281 281 282 284 285 286 285 285 285 284
298 299 303 300 294 303 305 302 302 302 302 301 300 298 297 295 293 291 289 286 286 285 284 282 282 281 282 282 282 282 282 282 280 280 281 282 283 286 286 285 284 286 285 284
303 306 306 304 304 304 303 303 302 301 299 298 297 296 294 293 291 288 286 286 284 285 282 283 282 281 281 282 282 282 282 281 280 280 281 282 284 286 286 285 284 284 284 284
304 305 305 305 304 303 301 300 299 298 297 296 294 293 292 291 289 286 285 286 285 282 282 282 282 282 281 281 282 282 281 279 280 280 281 282 284 286 286 285 284 284 284 283
306 304 303 303 303 301 299 298 297 296 295 294 291 290 289 288 286 284 286 285 283 282 282 282 281 281 281 281 281 281 280 279 280 280 281 282 283 285 286 286 285 284 284 283
305 303 302 301 299 298 297 296 295 294 294 291 289 289 287 286 284 284 286 283 282 282 281 281 281 281 281 282 281 280 279 279 280 281 281 281 283 285 286 287 286 285 284 284
301 300 298 297 297 296 295 294 293 292 291 290 289 288 286 285 284 286 283 281 282 281 281 281 281 281 281 282 281 280 280 279 280 280 280 281 283 284 286 287 287 285 285 285
299 296 295 296 294 295 294 294 294 294 292 290 288 287 286 284 285 285 282 281 282 282 281 281 281 281 281 280 281 280 280 280 279 280 280 281 282 284 286 288 287 286 285 285
295 295 295 294 294 294 294 294 294 294 294 293 289 286 286 285 285 283 281 281 282 281 281 281 281 281 281 281 280 280 280 280 279 280 281 281 283 285 288 289 288 287 287 286
295 294 294 294 294 294 294 294 293 293 292 290 286 286 285 285 285 282 281 282 281 281 281 281 281 281 281 280 280 280 281 280 279 280 281 281 282 285 288 289 290 289 289 288
294 293 294 293 293 293 293 293 292 291 291 288 285 286 286 285 283 281 282 282 281 281 281 280 280 281 280 280 280 280 281 280 280 282 281 280 281 283 287 289 291 291 291 291
293 294 293 293 292 293 292 292 292 291 290 288 285 285 286 284 281 281 281 282 282 281 281 280 280 280 281 280 280 281 281 281 281 281 281 280 281 282 285 289 291 293 292 292
293 293 293 292 292 293 292 291 291 291 291 287 285 285 285 282 281 281 281 281 281 281 281 280 280 281 281 281 280 281 281 282 282 282 281 281 282 282 284 287 291 292 293 293
292 293 293 292 292 292 292 291 290 290 290 289 285 284 284 282 281 281 281 281 281 280 280 280 280 281 281 281 282 282 282 282 282 282 282 281 282 282 284 285 288 291 294 294
291 292 291 291 291 291 291 291 290 290 289 288 285 283 282 281 281 281 281 281 281 281 279 280 280 280 281 281 282 282 282 282 282 282 282 282 282 283 283 285 286 290 293 295
291 291 291 291 291 290 290 289 289 289 288 287 284 283 281 281 281 281 281 281 281 281 279 280 280 279 280 281 282 282 282 282 283 283 283 283 283 283 283 284 285 287 290 294
291 291 290 290 289 288 287 287 287 287 287 286 283 281 280 280 281 281 281 280 280 280 280 280 279 279 281 281 281 282 282 282 282 283 283 283 283 283 284 284 285 286 288 291
290 289 288 287 286 286 285 286 284 284 285 284 282 281 281 280 281 281 280 280 280 280 279 279 280 280 280 281 281 281 281 282 282 282 283 283 283 283 284 284 285 285 287 289
287 286 285 285 285 284 284 284 283 283 284 283 282 281 281 280 280 280 280 280 280 280 280 280 279 280 280 280 280 281 281 281 281 282 282 283 283 283 284 284 285 285 286 287
284 283 283 282 282 282 282 282 282 281 281 282 281 281 281 281 280 280 280 280 280 280 279 279 279 279 280 280 280 280 280 281 281 281 282 282 282 283 283 284 284 285 285 286
282 281 281 281 282 281 281 281 281 281 281 280 280 280 281 281 280 280 280 280 279 279 279 279 279 279 279 279 279 280 280 280 280 281 281 282 282 282 283 283 283 284 284 285
Wind_Speed
22 19 15 22 17 12 14 18 9 23 12 27 25 23 32 34 44 40 41 36 33 34 33 27 27 28 31 33 33 32 34 35 37 36 33 33 34 34 35 35 35 36 40 42
9 10 7 12 8 15 19 18 19 27 31 25 42 32 25 32 38 41 40 38 31 32 30 33 32 32 33 35 35 33 36 39 37 35 33 33 35 35 35 36 35 36 40 43
7 2 12 10 7 13 6 9 7 9 11 5 19 18 24 42 44 43 43 41 32 30 35 32 32 30 33 36 37 37 37 36 34 33 34 33 35 35 35 36 35 36 40 43
7 10 5 4 5 3 11 9 17 16 16 20 26 43 33 45 42 42 41 36 34 33 33 31 32 30 31 35 37 36 37 36 34 34 34 35 33 37 36 36 39 43 41 42
5 6 16 14 5 2 3 7 8 9 16 24 28 34 37 22 31 39 39 37 34 29 31 33 32 31 32 35 36 36 37 36 34 35 37 34 37 37 35 37 37 45 42 40
2 5 7 7 4 4 5 8 9 8 17 22 25 16 22 50 46 43 41 35 29 29 31 34 32 31 33 35 36 38 38 39 37 36 34 36 35 36 36 34 37 36 44 39
10 7 11 10 6 6 8 11 35 26 28 31 15 22 43 48 44 36 34 32 27 28 33 32 31 32 34 36 37 39 40 39 36 34 36 33 35 32 31 31 33 34 38 35
5 6 10 5 5 6 19 30 26 37 36 38 44 50 46 41 37 35 35 26 26 29 34 31 31 33 36 37 37 39 38 38 36 38 36 33 29 29 27 26 25 27 30 34
10 8 15 24 32 29 29 31 36 35 42 39 41 46 46 43 36 32 30 26 27 33 32 31 31 33 36 36 36 39 38 38 38 39 33 26 26 25 29 25 24 25 27 30
9 8 22 29 39 17 32 32 36 36 38 38 41 46 44 38 31 30 25 27 31 32 33 33 32 34 34 34 36 37 39 39 39 38 30 27 22 22 31 28 25 26 26 29
18 23 29 15 27 35 38 35 37 41 34 38 40 44 36 36 31 26 27 28 30 31 32 34 34 35 34 34 36 36 39 40 39 33 32 26 22 24 28 36 28 29 29 29
12 21 21 29 33 37 31 33 36 37 46 39 35 35 34 31 26 26 27 28 30 30 31 33 34 35 34 35 35 37 39 40 36 35 28 24 23 25 25 30 31 25 24 26
23 19 27 34 24 27 36 36 36 35 40 45 42 34 29 27 23 25 26 28 28 30 30 32 34 35 34 37 37 36 37 39 38 33 28 27 24 22 23 22 26 22 24 26
27 23 15 20 27 34 38 41 43 44 42 43 43 36 30 25 25 25 26 27 27 29 29 31 33 34 35 38 37 37 39 37 30 32 28 25 23 23 21 20 23 25 23 24
13 17 21 27 34 40 43 46 49 49 49 49 42 35 28 23 25 24 24 24 26 28 29 30 33 35 36 36 37 40 41 36 32 30 26 23 21 20 17 14 18 15 21 22
16 21 26 33 36 37 41 45 47 50 49 48 41 32 24 21 24 24 22 22 25 27 27 29 33 34 35 36 38 41 38 32 28 29 25 24 22 19 12 8 15 15 17 20
19 24 27 33 37 38 40 43 44 47 48 46 38 27 20 20 22 23 21 20 22 24 24 29 32 33 35 36 37 39 35 34 30 29 26 26 23 20 14 13 7 16 15 13
25 25 27 32 35 35 39 42 44 45 45 41 31 23 18 20 22 22 21 20 22 24 23 27 30 30 32 37 35 34 33 33 32 31 28 28 23 20 15 10 7 6 12 11
29 28 28 32 37 35 36 39 40 43 42 36 29 23 19 19 21 20 20 20 21 24 26 28 29 29 33 35 32 32 32 32 32 32 30 30 26 22 18 10 6 3 9 12
28 28 28 35 36 32 37 42 42 43 41 36 29 26 19 17 19 19 18 18 18 21 23 26 26 28 32 34 32 32 31 31 31 33 33 32 29 25 21 14 8 4 8 12
29 31 35 40 43 42 46 46 44 44 42 36 29 28 22 17 17 17 17 18 17 19 19 23 23 27 28 31 31 32 30 31 32 33 34 35 33 29 25 19 13 7 1 6
33 36 40 42 43 44 49 48 49 46 40 35 28 24 22 18 15 16 15 16 17 17 19 21 22 25 25 27 29 31 30 30 32 33 33 34 35 34 29 23 18 12 5 3
45 41 42 42 40 43 46 49 47 40 36 33 27 22 19 18 15 15 14 13 14 15 17 19 20 21 22 24 28 30 31 30 33 33 32 34 36 33 30 28 23 17 11 5
43 44 44 45 42 39 40 48 38 37 33 28 23 19 19 17 14 14 12 12 12 13 14 16 17 18 20 23 26 29 32 30 32 32 31 32 36 34 31 28 26 24 17 10
47 42 39 38 37 39 37 37 36 35 30 24 22 20 16 14 13 13 11 10 10 11 12 13 14 15 18 21 24 27 29 32 31 31 32 33 36 36 33 31 28 25 23 18
44 41 42 36 35 36 35 33 32 30 28 24 19 17 14 13 12 11 10 9 9 9 11 12 14 15 16 18 22 23 26 29 31 32 30 33 35 36 34 32 30 28 26 22
40 32 34 33 33 31 31 29 29 29 24 21 18 15 13 11 11 9 8 8 8 8 9 10 12 13 15 16 18 22 24 25 27 30 30 33 35 35 35 34 31 30 27 25
Wind_Direction
265 281 275 264 267 189 202 230 249 273 270 288 300 302 300 298 299 298 299 298 302 303 306 307 306 307 309 307 307 306 302 301 296 293 282 276 275 271 268 265 263 260 258 253
286 269 262 264 248 233 227 251 257 263 280 267 273 284 289 291 298 304 301 298 303 309 311 312 314 313 313 313 310 306 305 303 300 296 287 280 276 273 270 265 262 260 255 252
276 153 304 275 226 192 201 199 200 232 252 343 304 296 308 300 305 300 301 306 311 313 316 315 316 315 316 315 313 309 309 307 298 293 285 280 278 273 270 269 265 263 256 250
281 297 237 302 168 175 203 235 214 255 279 282 284 296 297 297 286 300 317 312 313 314 315 318 319 319 319 318 315 313 312 309 302 297 289 282 279 274 269 268 266 264 258 246
278 293 289 287 132 170 205 273 245 220 258 285 303 306 303 319 325 314 308 307 311 315 317 322 322 324 323 321 319 316 310 308 302 296 289 282 279 277 272 270 264 255 257 245
311 265 286 320 141 136 120 285 138 242 311 312 319 314 305 319 321 316 311 313 314 323 326 322 325 326 325 325 321 321 316 312 309 300 293 287 283 280 279 271 260 263 250 243
231 258 276 284 100 156 314 323 328 324 309 306 306 294 298 309 313 313 309 316 321 324 322 322 327 328 327 326 325 321 320 314 311 303 298 289 282 282 280 265 265 255 237 236
205 219 268 158 142 297 314 310 314 314 317 313 312 311 314 316 316 311 315 318 322 321 319 326 330 330 330 329 328 322 320 319 317 308 303 291 282 280 266 264 263 235 236 229
203 236 283 301 294 307 319 312 317 317 315 315 312 310 313 315 318 312 319 323 324 320 322 330 333 334 332 332 329 325 325 324 316 311 305 292 283 277 259 261 252 242 230 222
280 254 283 296 296 320 321 317 313 315 315 314 311 312 311 314 313 310 318 325 323 322 327 331 334 336 335 333 331 330 329 325 316 312 310 300 281 283 258 253 246 235 227 222
278 289 287 315 319 320 315 318 320 319 314 314 314 310 309 310 311 311 320 322 322 325 328 332 336 337 339 337 337 335 332 322 316 318 316 305 293 277 266 263 251 235 229 225
267 296 312 309 309 313 318 319 317 317 323 322 324 319 317 313 312 314 318 321 323 326 329 333 336 337 342 340 342 340 327 322 320 316 315 309 306 298 293 260 255 233 231 230
282 297 305 301 319 326 321 327 327 319 326 331 335 327 319 313 312 314 315 320 324 327 330 334 336 339 342 345 345 341 333 327 319 324 322 318 309 303 313 263 242 234 230 227
294 304 323 328 321 332 336 334 335 334 332 330 331 326 319 313 314 313 318 320 323 327 333 336 337 342 345 347 344 344 338 325 325 332 324 318 315 312 303 263 239 232 224 223
324 328 327 330 337 340 341 337 337 332 330 328 328 322 315 310 307 312 320 321 325 329 334 337 340 345 347 347 348 346 336 335 334 334 330 327 324 326 332 254 238 232 229 217
344 343 342 338 335 334 334 330 328 328 327 325 323 323 313 308 308 314 320 324 327 330 334 339 346 346 350 350 350 343 340 345 338 345 346 343 340 333 330 307 236 225 219 211
352 341 340 333 330 324 325 326 325 324 323 323 319 316 306 307 307 312 318 322 326 330 337 346 343 352 351 353 350 341 347 351 353 357 358 356 345 339 323 318 273 228 222 236
335 332 326 324 316 311 318 323 323 323 321 321 312 305 304 304 306 311 316 323 328 333 343 345 351 352 354 358 347 346 355 358 2 4 6 359 350 352 343 326 331 234 212 209
324 317 317 326 324 307 309 316 319 319 322 318 305 297 301 301 304 308 316 324 329 333 343 350 352 354 1 357 347 356 1 4 8 10 11 3 7 6 359 355 349 298 201 206
319 316 302 314 324 314 310 316 318 317 320 317 300 291 292 299 302 305 313 321 326 332 342 348 349 358 359 356 358 4 5 10 13 14 14 10 12 12 10 4 14 24 207 206
315 315 314 318 323 318 318 315 316 314 316 308 294 286 285 293 299 300 309 316 326 332 342 349 351 3 354 353 2 10 10 15 18 18 16 16 15 19 16 11 16 16 327 194
311 310 312 311 312 309 313 309 309 311 307 300 289 278 277 288 292 294 303 310 326 336 342 349 357 355 354 358 9 13 13 19 22 21 21 22 19 16 18 17 15 21 15 246
308 309 309 308 305 302 303 307 309 307 301 295 280 272 272 283 283 290 300 310 323 336 342 349 357 356 4 3 16 16 18 23 28 24 23 26 22 22 22 23 21 18 21 21
308 308 308 307 307 302 297 307 307 306 302 292 273 259 263 271 279 284 291 308 323 336 343 349 358 5 7 9 19 20 23 23 30 29 28 29 29 28 29 29 29 24 23 22
309 308 307 307 304 301 304 304 300 304 301 290 273 260 257 258 263 275 290 304 319 331 342 351 360 5 11 13 16 20 23 25 26 31 32 31 32 29 31 33 36 33 32 27
311 310 310 308 304 310 314 318 314 307 300 293 277 256 247 252 258 268 283 300 316 330 341 351 2 8 11 14 14 15 21 24 25 28 33 34 35 33 33 34 35 37 37 34
312 312 312 312 312 312 316 314 309 305 302 290 271 250 242 246 252 264 283 296 312 329 340 350 1 9 13 14 15 12 18 22 26 26 31 37 35 33 35 35 34 36 37 37